Date String (YYYY-MM-DD hh:mm:ss) UTC,Instrument flags,Ambient pressure (hPa),Sample flow (lpm),Bypass flow (lpm),Sample temperature (°C),Ambient temperature (°C),ASC tube jacket temperature (°C),LED temperature (°C),Box temperature (°C),Sample RH (%),Span deviation,Mass concentration (μg/m³),Mass concentration (μg/m³),Mass concentration (μg/m³)
DateTimeUTC,F1_M11,P_M11,Q1_M11,Q2_M11,T1_M11,T2_M11,T3_M11,T4_M11,T5_M11,U1_M11,ZSPAN_M11,X2_M11,X0_M11,X1_M11
2023-02-07 17:00:00,,0829.6,4.99,0.00,23.4,22.2,00.0,32.2,25.1,07.9,0000.0,0001.76,0006.08,0001.16
2023-02-07 17:01:00,,0829.6,5.00,0.00,23.4,22.2,00.0,32.2,25.1,07.8,0000.0,0001.77,0007.60,0001.15
2023-02-07 17:02:00,,0829.6,5.02,0.00,23.4,22.2,00.0,32.2,25.2,07.6,0000.0,0001.75,0008.12,0001.15
2023-02-07 17:03:00,,0829.5,5.00,0.00,23.4,22.3,00.0,32.2,25.2,07.9,0000.0,0001.70,0007.91,0001.15
2023-02-07 17:04:00,,0829.6,5.01,0.00,23.4,22.3,00.0,32.2,25.2,08.3,0000.0,0001.72,0007.84,0001.15
2023-02-07 17:05:00,,0829.6,5.01,0.00,23.5,22.3,00.0,32.2,25.2,08.7,0000.0,0001.72,0007.31,0001.16
2023-02-07 17:06:00,,0829.6,5.01,0.00,23.5,22.3,00.0,32.2,25.2,08.0,0000.0,0001.68,0006.91,0001.16
2023-02-07 17:07:00,,0829.6,5.00,0.00,23.5,22.3,00.0,32.2,25.2,07.9,0000.0,0001.70,0006.52,0001.16
2023-02-07 17:08:00,,0829.6,5.00,0.00,23.5,22.3,00.0,32.2,25.2,08.4,0000.0,0001.74,0005.88,0001.17
2023-02-07 17:09:00,,0829.5,5.00,0.00,23.5,22.4,00.0,32.2,25.2,08.2,0000.0,0001.70,0005.65,0001.17
2023-02-07 17:10:00,,0829.6,5.00,0.00,23.5,22.4,00.0,32.3,25.3,07.2,0000.0,0001.66,0005.65,0001.18
2023-02-07 17:11:00,,0829.6,4.98,0.00,23.5,22.4,00.0,32.3,25.3,06.9,0000.0,0001.66,0005.64,0001.18
2023-02-07 17:12:00,,0829.6,5.00,0.00,23.5,22.4,00.0,32.3,25.3,07.0,0000.0,0001.65,0004.26,0001.18
2023-02-07 17:13:00,,0829.5,5.00,0.00,23.6,22.4,00.0,32.3,25.3,07.1,0000.0,0001.64,0002.92,0001.18
2023-02-07 17:14:00,,0829.6,5.01,0.00,23.6,22.4,00.0,32.3,25.3,07.4,0000.0,0001.62,0002.86,0001.18
2023-02-07 17:15:00,,0829.6,5.00,0.00,23.6,22.4,00.0,32.3,25.3,07.3,0000.0,0001.60,0003.06,0001.17
2023-02-07 17:16:00,,0829.6,5.00,0.00,23.6,22.4,00.0,32.3,25.4,07.5,0000.0,0001.61,0003.59,0001.17
2023-02-07 17:17:00,,0829.6,5.00,0.00,23.6,22.4,00.0,32.3,25.3,07.3,0000.0,0001.67,0004.08,0001.17
2023-02-07 17:18:00,,0829.6,5.00,0.00,23.6,22.5,00.0,32.3,25.4,07.3,0000.0,0001.71,0004.13,0001.18
2023-02-07 17:19:00,,0829.6,5.00,0.00,23.6,22.5,00.0,32.4,25.4,07.4,0000.0,0001.70,0004.04,0001.18
2023-02-07 17:20:00,,0829.5,5.00,0.00,23.6,22.5,00.0,32.4,25.4,07.5,0000.0,0001.75,0004.11,0001.18
2023-02-07 17:21:00,,0829.6,5.00,0.00,23.7,22.5,00.0,32.4,25.4,07.3,0000.0,0001.75,0003.98,0001.17
2023-02-07 17:22:00,,0829.6,5.00,0.00,23.7,22.5,00.0,32.4,25.4,07.4,0000.0,0001.78,0004.04,0001.18
2023-02-07 17:23:00,,0829.6,5.02,0.00,23.7,22.5,00.0,32.4,25.5,07.4,0000.0,0001.83,0004.12,0001.19
2023-02-07 17:24:00,,0829.7,4.99,0.00,23.7,22.6,00.0,32.4,25.5,07.3,0000.0,0001.86,0004.15,0001.18
2023-02-07 17:25:00,,0829.8,5.00,0.00,23.7,22.6,00.0,32.4,25.5,07.2,0000.0,0001.89,0004.40,0001.18
2023-02-07 17:26:00,,0829.7,5.01,0.00,23.7,22.6,00.0,32.4,25.5,07.3,0000.0,0001.91,0004.35,0001.18
2023-02-07 17:27:00,,0829.6,5.00,0.00,23.7,22.6,00.0,32.5,25.5,07.4,0000.0,0001.91,0003.97,0001.18
2023-02-07 17:28:00,,0829.7,4.99,0.00,23.7,22.6,00.0,32.5,25.5,07.4,0000.0,0001.92,0003.92,0001.18
2023-02-07 17:29:00,,0829.7,5.01,0.00,23.8,22.6,00.0,32.5,25.5,07.0,0000.0,0001.91,0004.88,0001.19
2023-02-07 17:30:00,,0829.7,5.00,0.00,23.8,22.6,00.0,32.5,25.6,06.9,0000.0,0001.92,0004.97,0001.19
2023-02-07 17:31:00,,0829.7,5.01,0.00,23.8,22.6,00.0,32.5,25.5,07.0,0000.0,0001.91,0004.97,0001.19
2023-02-07 17:32:00,,0829.7,5.00,0.00,23.8,22.6,00.0,32.5,25.5,07.0,0000.0,0001.98,0005.22,0001.20
2023-02-07 17:33:00,,0829.7,5.00,0.00,23.8,22.6,00.0,32.5,25.6,07.0,0000.0,0002.02,0005.32,0001.21
2023-02-07 17:34:00,,0829.7,5.00,0.00,23.8,22.6,00.0,32.5,25.6,07.0,0000.0,0001.99,0005.52,0001.21
2023-02-07 17:35:00,,0829.7,5.01,0.00,23.8,22.6,00.0,32.5,25.6,07.0,0000.0,0002.01,0006.60,0001.24
2023-02-07 17:36:00,,0829.8,4.98,0.00,23.8,22.6,00.0,32.5,25.5,07.2,0000.0,0002.08,0007.10,0001.27
2023-02-07 17:37:00,,0829.8,5.00,0.00,23.8,22.6,00.0,32.6,25.5,07.1,0000.0,0002.15,0007.07,0001.31
2023-02-07 17:38:00,,0829.8,5.00,0.00,23.8,22.6,00.0,32.6,25.6,07.1,0000.0,0002.21,0007.19,0001.34
2023-02-07 17:39:00,,0829.8,5.00,0.00,23.8,22.6,00.0,32.6,25.6,07.2,0000.0,0002.33,0007.78,0001.39
2023-02-07 17:40:00,,0829.8,4.99,0.00,23.8,22.6,00.0,32.6,25.6,07.3,0000.0,0002.39,0007.51,0001.42
2023-02-07 17:41:00,,0829.8,4.98,0.00,23.8,22.6,00.0,32.6,25.6,07.6,0000.0,0002.40,0007.59,0001.45
2023-02-07 17:42:00,,0829.8,5.00,0.00,23.8,22.6,00.0,32.6,25.6,07.3,0000.0,0002.45,0007.75,0001.48
2023-02-07 17:43:00,,0829.7,4.99,0.00,23.8,22.6,00.0,32.6,25.6,07.4,0000.0,0002.45,0007.73,0001.51
2023-02-07 17:44:00,,0829.8,5.01,0.00,23.8,22.6,00.0,32.6,25.6,07.5,0000.0,0002.44,0008.11,0001.53
2023-02-07 17:45:00,,0829.8,4.99,0.00,23.8,22.6,00.0,32.6,25.6,07.6,0000.0,0002.48,0008.62,0001.57
2023-02-07 17:46:00,,0829.7,5.01,0.00,23.8,22.6,00.0,32.6,25.6,07.6,0000.0,0002.52,0008.12,0001.58
2023-02-07 17:47:00,,0829.8,5.02,0.00,23.8,22.6,00.0,32.6,25.6,07.7,0000.0,0002.51,0008.23,0001.59
2023-02-07 17:48:00,,0829.8,4.99,0.00,23.8,22.6,00.0,32.6,25.6,07.7,0000.0,0002.49,0008.80,0001.60
2023-02-07 17:49:00,,0829.8,4.99,0.00,23.8,22.6,00.0,32.6,25.6,07.8,0000.0,0002.55,0009.07,0001.60
2023-02-07 17:50:00,,0829.8,5.01,0.00,23.8,22.7,00.0,32.6,25.6,07.9,0000.0,0002.50,0008.97,0001.62
2023-02-07 17:51:00,,0829.8,5.00,0.00,23.9,22.7,00.0,32.6,25.6,08.2,0000.0,0002.43,0008.57,0001.63
2023-02-07 17:52:00,,0829.8,5.02,0.00,23.9,22.7,00.0,32.6,25.7,08.3,0000.0,0002.49,0008.51,0001.66
2023-02-07 17:53:00,,0829.8,5.00,0.00,23.9,22.7,00.0,32.6,25.6,07.9,0000.0,0002.51,0008.76,0001.70
2023-02-07 17:54:00,,0829.8,5.00,0.00,23.9,22.7,00.0,32.6,25.6,08.0,0000.0,0002.56,0009.10,0001.71
2023-02-07 17:55:00,,0829.8,4.99,0.00,23.9,22.7,00.0,32.6,25.6,08.5,0000.0,0002.62,0009.70,0001.73
2023-02-07 17:56:00,,0829.8,5.01,0.00,23.9,22.6,00.0,32.7,25.7,08.0,0000.0,0002.66,0009.07,0001.76
2023-02-07 17:57:00,,0829.8,5.00,0.00,23.9,22.6,00.0,32.7,25.6,08.1,0000.0,0002.70,0009.07,0001.79
2023-02-07 17:58:00,,0829.8,5.00,0.00,23.9,22.6,00.0,32.7,25.6,08.4,0000.0,0002.77,0009.05,0001.82
2023-02-07 17:59:00,,0829.7,5.00,0.00,23.9,22.6,00.0,32.7,25.6,08.4,0000.0,0002.86,0008.45,0001.85
